Glens Falls, NY

4:51 AM EDT on October 14, 2019 (GMT -0400)
Bennett Memorial

Weather History for KGFL - August, 2019

Change the Weather History Date:

Wednesday, August 14, 2019

  Actual Average Record
Temperature  
Mean Temperature 70 °F 68 °F  
Max Temperature 81 °F 79 °F 96 °F (1985)
Min Temperature 59 °F 56 °F 42 °F (1961)
Degree Days  
Heating Degree Days 0 1  
Month to date heating degree days 5 14  
Since 1 June heating degree days 75 125  
Since 1 July heating degree days 5 35  
Cooling Degree Days 5 4  
Month to date cooling degree days 52 56  
Year to date cooling degree days 348 276  
Since 1 June cooling degree days 339 264  
Growing Degree Days 21 (Base 50)    
Moisture  
Dew Point 57 °F    
Average Humidity 66    
Maximum Humidity 93    
Minimum Humidity 39    
Precipitation  
Precipitation 0.00 in 0.13 in 1.06 in (1948)
Month to date precipitation 0.62 1.81  
Year to date precipitation 26.56 23.94  
Sea Level Pressure  
Sea Level Pressure 29.88 in    
Wind  
Wind Speed 4 mph (NE)    
Max Wind Speed 12 mph    
Max Gust Speed 15 mph    
Visibility 10 miles    
Events      
T = Trace of Precipitation, MM = Missing Value Source: NWS Daily Summary

Daily Weather History Graph

Daily Weather History Graph

Search for Another Location

Airport or City:

Astronomy

Aug. 14, 2019 Rise Set
Actual Time 5:58 AM EDT 7:59 PM EDT
Civil Twilight 5:27 AM EDT 8:30 PM EDT
Nautical Twilight 4:49 AM EDT 9:08 PM EDT
Astronomical Twilight 4:07 AM EDT 9:49 PM EDT
Moon 7:53 PM EDT 4:50 AM EDT
Length of Visible Light 15h 02m
Length of Day
14h 00m
Waxing Gibbous, 99% of the Moon is Illuminated
Aug 14
Waxing Gibbous
Aug 15
Full
Aug 23
Last Quarter
Aug 30
New
Sep 5
First Quarter

Hourly Weather History & Observations

Time (EDT) Temp. Heat Index Dew Point Humidity Pressure Visibility Wind Dir Wind Speed Gust Speed Precip Events Conditions
12:53 AM 62.1 °F - 60.1 °F 93% 29.82 in 9.0 mi Calm Calm - N/A   Mostly Cloudy
1:53 AM 62.1 °F - 59.0 °F 90% 29.82 in 10.0 mi Calm Calm - N/A   Scattered Clouds
2:53 AM 63.0 °F - 59.0 °F 87% 29.81 in 10.0 mi Calm Calm - N/A   Overcast
4:53 AM 62.1 °F - 57.9 °F 86% 29.83 in 10.0 mi Calm Calm - N/A   Clear
5:53 AM 61.0 °F - 57.9 °F 90% 29.84 in 10.0 mi East 3.5 mph - N/A   Partly Cloudy
6:53 AM 63.0 °F - 57.9 °F 84% 29.87 in 10.0 mi Calm Calm - N/A   Clear
7:53 AM 64.0 °F - 59.0 °F 84% 29.88 in 10.0 mi ENE 4.6 mph - N/A   Clear
8:53 AM 66.0 °F - 57.9 °F 75% 29.89 in 10.0 mi ENE 3.5 mph - N/A   Clear
9:53 AM 70.0 °F - 59.0 °F 68% 29.89 in 10.0 mi NE 6.9 mph - N/A   Clear
10:53 AM 73.0 °F - 59.0 °F 61% 29.88 in 10.0 mi East 4.6 mph - N/A   Clear
11:53 AM 75.0 °F - 57.9 °F 55% 29.88 in 10.0 mi Variable 5.8 mph - N/A   Clear
12:53 PM 77.0 °F - 59.0 °F 54% 29.86 in 10.0 mi ESE 8.1 mph - N/A   Clear
1:53 PM 78.1 °F - 55.0 °F 45% 29.86 in 10.0 mi Variable 5.8 mph - N/A   Clear
2:53 PM 80.1 °F 79.9 °F 53.1 °F 39% 29.86 in 10.0 mi East 3.5 mph - N/A   Clear
3:53 PM 81.0 °F 80.4 °F 53.1 °F 38% 29.86 in 10.0 mi ENE 4.6 mph - N/A   Clear
4:53 PM 80.1 °F 79.9 °F 53.1 °F 39% 29.86 in 10.0 mi Calm Calm - N/A   Partly Cloudy
5:53 PM 79.0 °F - 54.0 °F 42% 29.87 in 10.0 mi NE 6.9 mph - N/A   Clear
6:53 PM 75.0 °F - 57.9 °F 55% 29.89 in 10.0 mi North 5.8 mph - N/A   Partly Cloudy
7:53 PM 72.0 °F - 57.0 °F 59% 29.91 in 10.0 mi North 6.9 mph - N/A   Mostly Cloudy
8:53 PM 69.1 °F - 57.0 °F 65% 29.93 in 10.0 mi NE 4.6 mph - N/A   Mostly Cloudy
9:53 PM 68.0 °F - 55.9 °F 65% 29.94 in 10.0 mi North 5.8 mph - N/A   Mostly Cloudy
10:53 PM 69.1 °F - 55.0 °F 61% 29.96 in 10.0 mi North 4.6 mph - N/A   Overcast
11:53 PM 66.0 °F - 54.0 °F 65% 29.97 in 10.0 mi North 5.8 mph - N/A   Mostly Cloudy